EW7937 Weather Reports


Display with metric or nautical units.
time (UTC)temp
F
wind
direction
speed
MPH
gust
MPH
rain 1hr
in
rain 24hr
in
rain mn
in
humidity
%
barometer
mb
20260906091202 68 296 0.0 0.0 0.00 0.00 0.00 57 1012.9
20260906090703 68 296 0.0 0.0 0.00 0.00 0.00 56 1012.9
20260906090202 68 296 0.0 3.0 0.00 0.00 0.00 56 1013.0
20260906085705 68 296 0.0 3.0 0.00 0.00 0.00 56 1013.0
20260906085203 68 286 0.0 0.0 0.00 0.00 0.00 56 1012.9
20260906084702 68 286 0.0 0.0 0.00 0.00 0.00 55 1012.9
20260906084447 69 286 0.0 5.0 0.00 0.00 0.00 55 1012.9
20260906083704 69 297 0.0 5.0 0.00 0.00 0.00 55 1013.0
20260906083203 69 292 0.0 1.0 0.00 0.00 0.00 54 1013.1
20260906082704 69 283 0.0 2.0 0.00 0.00 0.00 54 1013.0
20260906082202 69 283 0.0 2.0 0.00 0.00 0.00 54 1012.9
20260906081703 69 275 0.0 0.0 0.00 0.00 0.00 53 1012.9
20260906081204 69 275 0.0 0.0 0.00 0.00 0.00 53 1012.9
20260906080703 69 275 0.0 0.0 0.00 0.00 0.00 53 1013.0
20260906080203 69 275 0.0 0.0 0.00 0.00 0.00 53 1012.9
20260906075703 70 275 0.0 0.0 0.00 0.00 0.00 53 1012.9
20260906075202 70 275 0.0 1.0 0.00 0.00 0.00 52 1012.9
20260906074704 70 275 0.0 1.0 0.00 0.00 0.00 52 1012.8
20260906074203 70 288 0.0 0.0 0.00 0.00 0.00 52 1012.8
20260906073703 71 288 0.0 0.0 0.00 0.00 0.00 52 1012.6
20260906073444 71 288 0.0 1.0 0.00 0.00 0.00 52 1012.7
20260906072703 71 288 0.0 4.0 0.00 0.00 0.00 52 1012.6
20260906072202 71 298 0.0 7.0 0.00 0.00 0.00 52 1012.6
20260906071703 71 309 0.0 7.0 0.00 0.00 0.00 52 1012.7
20260906071203 71 298 0.0 2.0 0.00 0.00 0.00 52 1012.6
20260906070704 71 298 0.0 2.0 0.00 0.00 0.00 52 1012.6
20260906070203 72 299 0.0 2.0 0.00 0.00 0.00 52 1012.6
20260906065704 72 327 0.0 1.0 0.00 0.00 0.00 52 1012.5
20260906065202 72 327 0.0 1.0 0.00 0.00 0.00 52 1012.5
20260906064702 72 306 0.0 1.0 0.00 0.00 0.00 52 1012.5
20260906064449 72 306 0.0 1.0 0.00 0.00 0.00 52 1012.5
20260906063705 72 279 0.0 1.0 0.00 0.00 0.00 52 1012.6
20260906063204 72 297 0.0 0.0 0.00 0.00 0.00 52 1012.5
20260906062703 73 297 0.0 0.0 0.00 0.00 0.00 52 1012.6
20260906062203 73 297 0.0 0.0 0.00 0.00 0.00 52 1012.5
20260906061702 73 297 0.0 0.0 0.00 0.00 0.00 51 1012.4
20260906061203 73 297 0.0 0.0 0.00 0.00 0.00 51 1012.5
20260906060704 74 297 0.0 0.0 0.00 0.00 0.00 51 1012.5
20260906060203 74 297 0.0 0.0 0.00 0.00 0.00 50 1012.5
20260906055704 74 297 0.0 0.0 0.00 0.00 0.00 50 1012.4
20260906055205 74 297 0.0 0.0 0.00 0.00 0.00 49 1012.4
20260906054950 74 297 0.0 0.0 0.00 0.00 0.00 49 1012.5
20260906054203 75 297 0.0 2.0 0.00 0.00 0.00 49 1012.6
20260906053948 75 297 0.0 2.0 0.00 0.00 0.00 49 1012.6
20260906053201 75 315 0.0 0.0 0.00 0.00 0.00 49 1012.5
20260906052948 75 315 0.0 0.0 0.00 0.00 0.00 48 1012.5
20260906052203 75 315 0.0 0.0 0.00 0.00 0.00 48 1012.6
20260906051704 75 315 0.0 1.0 0.00 0.00 0.00 49 1012.6
20260906051446 75 315 0.0 1.0 0.00 0.00 0.00 49 1012.5
20260906050703 75 221 0.0 0.0 0.00 0.00 0.00 49 1012.5
20260906050205 75 221 0.0 0.0 0.00 0.00 0.00 50 1012.5
20260906045703 74 221 0.0 0.0 0.00 0.00 0.00 50 1012.4
20260906045203 74 221 0.0 0.0 0.00 0.00 0.00 51 1012.4
20260906044703 74 221 0.0 0.0 0.00 0.00 0.00 52 1012.5
20260906044203 74 221 0.0 0.0 0.00 0.00 0.00 56 1012.5
20260906043704 74 221 0.0 0.0 0.00 0.00 0.00 54 1012.5
20260906043201 75 221 0.0 0.0 0.00 0.00 0.00 54 1012.4
20260906042703 75 221 0.0 0.0 0.00 0.00 0.00 54 1012.5
20260906042203 75 221 0.0 0.0 0.00 0.00 0.00 54 1012.4
20260906041703 75 221 0.0 0.0 0.00 0.00 0.00 51 1012.3
20260906041202 76 221 0.0 0.0 0.00 0.00 0.00 51 1012.3
20260906040706 76 221 0.0 0.0 0.00 0.00 0.00 50 1012.3
20260906040452 76 221 0.0 0.0 0.00 0.00 0.00 50 1012.2
20260906035702 76 221 0.0 0.0 0.00 0.00 0.00 49 1012.1
20260906035202 77 221 0.0 0.0 0.00 0.00 0.00 49 1012.0
20260906034704 77 221 0.0 0.0 0.00 0.00 0.00 49 1011.8
20260906034448 77 221 0.0 0.0 0.00 0.00 0.00 48 1011.7
20260906033704 77 221 0.0 0.0 0.00 0.00 0.00 48 1011.7
20260906033204 78 221 0.0 0.0 0.00 0.00 0.00 47 1011.6
20260906032702 78 221 0.0 0.0 0.00 0.00 0.00 47 1011.5
20260906032453 78 221 0.0 0.0 0.00 0.00 0.00 46 1011.5
20260906031702 79 221 0.0 0.0 0.00 0.00 0.00 46 1011.4
20260906031452 79 221 0.0 0.0 0.00 0.00 0.00 45 1011.3
20260906030702 80 221 0.0 0.0 0.00 0.00 0.00 44 1011.3
20260906030450 80 221 0.0 0.0 0.00 0.00 0.00 43 1011.3
20260906025703 80 221 0.0 0.0 0.00 0.00 0.00 42 1011.3
20260906025205 81 221 0.0 0.0 0.00 0.00 0.00 42 1011.3
20260906024703 82 221 0.0 0.0 0.00 0.00 0.00 42 1011.3
20260906024203 82 221 0.0 0.0 0.00 0.00 0.00 41 1011.3
20260906023950 83 221 0.0 0.0 0.00 0.00 0.00 40 1011.3
20260906023204 83 221 0.0 0.0 0.00 0.00 0.00 39 1011.2
20260906022704 84 221 0.0 0.0 0.00 0.00 0.00 38 1011.3
20260906022204 84 221 0.0 0.0 0.00 0.00 0.00 38 1011.2
20260906021951 84 221 0.0 0.0 0.00 0.00 0.00 37 1011.2
20260906021204 85 221 0.0 0.0 0.00 0.00 0.00 36 1011.3
20260906020704 85 221 0.0 0.0 0.00 0.00 0.00 35 1011.2
20260906020205 85 221 0.0 0.0 0.00 0.00 0.00 35 1011.2
20260906015705 86 221 0.0 0.0 0.00 0.00 0.00 35 1011.3
20260906015203 86 221 0.0 0.0 0.00 0.00 0.00 34 1011.2
20260906014704 87 221 0.0 0.0 0.00 0.00 0.00 34 1011.3
20260906014204 87 221 0.0 0.0 0.00 0.00 0.00 34 1011.2
20260906013704 87 221 0.0 0.0 0.00 0.00 0.00 34 1011.3
20260906013205 88 221 0.0 0.0 0.00 0.00 0.00 35 1011.3
20260906012703 88 221 0.0 0.0 0.00 0.00 0.00 33 1011.3
20260906012204 88 221 0.0 0.0 0.00 0.00 0.00 33 1011.3
20260906011702 89 221 0.0 0.0 0.00 0.00 0.00 33 1011.3
20260906011204 89 221 0.0 0.0 0.00 0.00 0.00 34 1011.3
20260906010702 89 221 0.0 0.0 0.00 0.00 0.00 34 1011.4
20260906010449 89 221 0.0 0.0 0.00 0.00 0.00 34 1011.4
20260906005703 89 221 0.0 0.0 0.00 0.00 0.00 34 1011.4
20260906005202 89 221 0.0 0.0 0.00 0.00 0.00 33 1011.4
20260906004706 89 221 0.0 0.0 0.00 0.00 0.00 33 1011.4
20260906004202 89 221 0.0 0.0 0.00 0.00 0.00 33 1011.4
20260906003703 89 221 0.0 0.0 0.00 0.00 0.00 33 1011.5
20260906003204 89 221 0.0 0.0 0.00 0.00 0.00 33 1011.4
20260906002752 90 221 0.0 0.0 0.00 0.00 0.00 33 1011.5
20260906002730 90 221 0.0 0.0 0.00 0.00 0.00 33 1011.5
20260906001701 90 221 0.0 0.0 0.00 0.00 0.00 33 1011.6
20260906001202 90 221 0.0 0.0 0.00 0.00 0.00 32 1011.5
20260906000828 90 221 0.0 0.0 0.00 0.00 0.00 32 1011.6
20260906000804 90 221 0.0 0.0 0.00 0.00 0.00 31 1011.6
20260906000228 90 221 0.0 0.0 0.00 0.00 0.00 32 1011.6
20260905235202 90 221 0.0 0.0 0.00 0.00 0.00 32 1011.6
20260905234740 90 221 0.0 0.0 0.00 0.00 0.00 31 1011.8
20260905234725 90 221 0.0 0.0 0.00 0.00 0.00 33 1011.7
20260905233952 90 221 0.0 0.0 0.00 0.00 0.00 31 1011.8
20260905233203 90 221 0.0 0.0 0.00 0.00 0.00 33 1011.8
20260905232702 91 221 0.0 0.0 0.00 0.00 0.00 33 1011.9
20260905232204 91 221 0.0 0.0 0.00 0.00 0.00 32 1011.9
20260905231703 91 221 0.0 0.0 0.00 0.00 0.00 32 1012.1
20260905231203 91 221 0.0 0.0 0.00 0.00 0.00 34 1012.1
20260905230953 91 221 0.0 0.0 0.00 0.00 0.00 33 1012.1
20260905230204 91 221 0.0 0.0 0.00 0.00 0.00 33 1012.2
20260905225705 91 221 0.0 0.0 0.00 0.00 0.00 32 1012.2
20260905225203 91 221 0.0 0.0 0.00 0.00 0.00 33 1012.2
20260905224704 91 221 0.0 0.0 0.00 0.00 0.00 33 1012.3
20260905224201 91 221 0.0 0.0 0.00 0.00 0.00 33 1012.4
20260905223954 92 221 0.0 0.0 0.00 0.00 0.00 32 1012.4
20260905223202 92 221 0.0 0.0 0.00 0.00 0.00 35 1012.4
20260905222702 92 221 0.0 0.0 0.00 0.00 0.00 33 1012.5
20260905222455 92 221 0.0 0.0 0.00 0.00 0.00 34 1012.6
20260905221702 92 221 0.0 0.0 0.00 0.00 0.00 31 1012.5
20260905221204 92 221 0.0 0.0 0.00 0.00 0.00 34 1012.6
20260905220703 92 221 0.0 0.0 0.00 0.00 0.00 33 1012.8
20260905220156 92 221 0.0 0.0 0.00 0.00 0.00 33 1012.8
20260905215655 91 221 0.0 0.0 0.00 0.00 0.00 35 1012.9
20260905215243 91 221 0.0 0.0 0.00 0.00 0.00 34 1013.0
20260905215223 91 221 0.0 0.0 0.00 0.00 0.00 34 1013.0
20260905214150 91 221 0.0 0.0 0.00 0.00 0.00 35 1013.1
20260905213932 91 221 0.0 0.0 0.00 0.00 0.00 35 1013.2
20260905213145 91 221 0.0 0.0 0.00 0.00 0.00 34 1013.3
20260905212646 91 221 0.0 0.0 0.00 0.00 0.00 34 1013.3
20260905212143 90 221 0.0 0.0 0.00 0.00 0.00 35 1013.3
20260905211638 90 221 0.0 0.0 0.00 0.00 0.00 35 1013.3
20260905211132 89 221 0.0 0.0 0.00 0.00 0.00 34 1013.4
20260905210633 89 221 0.0 0.0 0.00 0.00 0.00 36 1013.5
20260905210420 89 221 0.0 0.0 0.00 0.00 0.00 34 1013.5
20260905205923 89 221 0.0 0.0 0.00 0.00 0.00 34 1013.6
20260905205133 90 221 0.0 0.0 0.00 0.00 0.00 34 1013.5
20260905204631 90 221 0.0 0.0 0.00 0.00 0.00 35 1013.4
20260905204132 89 221 0.0 0.0 0.00 0.00 0.00 35 1013.6
20260905203631 89 221 0.0 0.0 0.00 0.00 0.00 36 1013.5
20260905203132 89 221 0.0 0.0 0.00 0.00 0.00 36 1013.7
20260905202919 89 221 0.0 0.0 0.00 0.00 0.00 35 1013.6
20260905202133 89 221 0.0 1.0 0.00 0.00 0.00 34 1013.6
20260905201633 89 221 0.0 1.0 0.00 0.00 0.00 34 1013.6
20260905201132 88 205 0.0 0.0 0.00 0.00 0.00 35 1013.7
20260905200634 88 205 0.0 0.0 0.00 0.00 0.00 34 1013.7
20260905200133 88 205 0.0 0.0 0.00 0.00 0.00 34 1013.7
20260905195713 88 205 0.0 0.0 0.00 0.00 0.00 36 1013.8
20260905195656 88 205 0.0 0.0 0.00 0.00 0.00 36 1013.8
20260905194634 87 205 0.0 0.0 0.00 0.00 0.00 36 1013.9
20260905194423 87 205 0.0 0.0 0.00 0.00 0.00 37 1014.0
20260905193633 87 205 0.0 0.0 0.00 0.00 0.00 37 1014.1
20260905193131 86 205 0.0 0.0 0.00 0.00 0.00 38 1014.1
20260905192632 86 205 0.0 0.0 0.00 0.00 0.00 35 1014.1
20260905192133 86 205 0.0 0.0 0.00 0.00 0.00 35 1014.2
20260905191924 86 205 0.0 0.0 0.00 0.00 0.00 36 1014.3
20260905191133 85 205 0.0 0.0 0.00 0.00 0.00 37 1014.4
20260905190634 85 205 0.0 0.0 0.00 0.00 0.00 39 1014.5
20260905190133 84 205 0.0 0.0 0.00 0.00 0.00 38 1014.5
20260905185920 84 205 0.0 0.0 0.00 0.00 0.00 37 1014.4
20260905185132 84 205 0.0 0.0 0.00 0.00 0.00 37 1014.5
20260905184628 83 205 0.0 0.0 0.00 0.00 0.00 39 1014.5
20260905184130 83 205 0.0 0.0 0.00 0.00 0.00 37 1014.6
20260905183627 83 205 0.0 0.0 0.00 0.00 0.00 40 1014.6
20260905183128 83 205 0.0 0.0 0.00 0.00 0.00 37 1014.7
20260905182626 83 205 0.0 0.0 0.00 0.00 0.00 38 1014.7
20260905182124 83 205 0.0 0.0 0.00 0.00 0.00 40 1014.8
20260905181624 82 205 0.0 0.0 0.00 0.00 0.00 41 1014.9
20260905181416 82 205 0.0 0.0 0.00 0.00 0.00 42 1014.9
20260905180622 82 205 0.0 0.0 0.00 0.00 0.00 41 1014.9
20260905180407 81 205 0.0 0.0 0.00 0.00 0.00 42 1014.9
20260905175616 81 205 0.0 0.0 0.00 0.00 0.00 42 1015.0
20260905175201 80 205 0.0 2.0 0.00 0.00 0.00 43 1014.9
20260905175145 81 205 0.0 0.0 0.00 0.00 0.00 41 1015.0
20260905174114 80 205 0.0 2.0 0.00 0.00 0.00 44 1014.9
20260905173609 80 296 0.0 0.0 0.00 0.00 0.00 43 1014.8
20260905173104 80 296 0.0 0.0 0.00 0.00 0.00 44 1014.9
20260905172606 79 296 0.0 0.0 0.00 0.00 0.00 44 1015.0
20260905172107 79 296 0.0 0.0 0.00 0.00 0.00 45 1014.9
20260905171603 78 296 0.0 0.0 0.00 0.00 0.00 45 1014.9
20260905171102 78 296 0.0 0.0 0.00 0.00 0.00 46 1014.9
20260905170603 78 296 0.0 0.0 0.00 0.00 0.00 45 1014.8
20260905170104 77 296 0.0 0.0 0.00 0.00 0.00 45 1014.7
20260905165602 77 296 0.0 0.0 0.00 0.00 0.00 47 1014.9
20260905165103 76 296 0.0 0.0 0.00 0.00 0.00 47 1014.7
20260905164603 76 296 0.0 0.0 0.00 0.00 0.00 47 1014.7
20260905164104 75 296 0.0 0.0 0.00 0.00 0.00 48 1014.8
20260905163851 74 296 0.0 0.0 0.00 0.00 0.00 49 1014.8
20260905163104 74 296 0.0 0.0 0.00 0.00 0.00 49 1014.8
20260905162603 74 296 0.0 0.0 0.00 0.00 0.00 50 1014.7
20260905162351 73 296 0.0 0.0 0.00 0.00 0.00 51 1014.6
20260905161603 72 296 0.0 0.0 0.00 0.00 0.00 51 1014.6
20260905161104 72 296 0.0 0.0 0.00 0.00 0.00 52 1014.5
20260905160603 71 296 0.0 0.0 0.00 0.00 0.00 52 1014.5
20260905155605 70 296 0.0 0.0 0.00 0.00 0.00 54 1014.6
20260905155103 70 296 0.0 0.0 0.00 0.00 0.00 55 1014.6
20260905154847 69 296 0.0 0.0 0.00 0.00 0.00 55 1014.5
20260905154103 68 296 0.0 0.0 0.00 0.00 0.00 56 1014.5
20260905153853 67 296 0.0 0.0 0.00 0.00 0.00 58 1014.5
20260905153102 67 296 0.0 0.0 0.00 0.00 0.00 59 1014.5
20260905152604 65 296 0.0 0.0 0.00 0.00 0.00 61 1014.4
20260905152105 64 296 0.0 0.0 0.00 0.00 0.00 64 1014.3
20260905151603 63 296 0.0 0.0 0.00 0.00 0.00 65 1014.2
20260905151104 62 296 0.0 0.0 0.00 0.00 0.00 67 1014.1
20260905150849 62 296 0.0 0.0 0.00 0.00 0.00 68 1014.1
20260905145604 61 296 0.0 0.0 0.00 0.00 0.00 68 1014.0
20260905145104 61 296 0.0 0.0 0.00 0.00 0.00 68 1014.2
20260905144602 61 296 0.0 0.0 0.00 0.00 0.00 68 1014.3
20260905144102 61 296 0.0 0.0 0.00 0.00 0.00 68 1014.2
20260905143603 60 296 0.0 0.0 0.00 0.00 0.00 69 1014.2
20260905143104 60 296 0.0 0.0 0.00 0.00 0.00 69 1014.1
20260905142604 60 296 0.0 0.0 0.00 0.00 0.00 70 1013.8
20260905142101 60 296 0.0 0.0 0.00 0.00 0.00 70 1013.7
20260905141559 60 296 0.0 0.0 0.00 0.00 0.00 70 1013.7
20260905141058 60 296 0.0 0.0 0.00 0.00 0.00 70 1013.6
20260905140555 60 296 0.0 0.0 0.00 0.00 0.00 70 1013.7
20260905140055 60 296 0.0 0.0 0.00 0.00 0.00 71 1013.7
20260905135556 60 296 0.0 0.0 0.00 0.00 0.00 71 1013.5
20260905135046 60 296 0.0 0.0 0.00 0.00 0.00 71 1013.4
20260905134540 60 296 0.0 0.0 0.00 0.00 0.00 70 1013.4
20260905134039 60 296 0.0 0.0 0.00 0.00 0.00 71 1013.3
20260905133535 60 296 0.0 0.0 0.00 0.00 0.00 70 1013.3
20260905133031 60 296 0.0 0.0 0.00 0.00 0.00 70 1013.2
20260905132531 60 296 0.0 0.0 0.00 0.00 0.00 70 1013.3
20260905132031 60 296 0.0 0.0 0.00 0.00 0.00 70 1013.2
20260905131812 60 296 0.0 0.0 0.00 0.00 0.00 70 1013.2
20260905131032 60 296 0.0 0.0 0.00 0.00 0.00 70 1013.1
20260905130533 60 296 0.0 0.0 0.00 0.00 0.00 70 1013.1
20260905130032 60 296 0.0 0.0 0.00 0.00 0.00 70 1013.0
20260905125534 61 296 0.0 0.0 0.00 0.00 0.00 69 1013.1
20260905125034 61 296 0.0 0.0 0.00 0.00 0.00 69 1013.2
20260905124824 61 296 0.0 0.0 0.00 0.00 0.00 69 1013.1
20260905124032 61 296 0.0 0.0 0.00 0.00 0.00 69 1013.1
20260905123532 61 296 0.0 0.0 0.00 0.00 0.00 68 1013.2
20260905123315 61 296 0.0 0.0 0.00 0.00 0.00 69 1013.1
20260905122526 61 296 0.0 0.0 0.00 0.00 0.00 68 1013.1
20260905122012 62 296 0.0 0.0 0.00 0.00 0.00 68 1013.1
20260905121512 62 296 0.0 0.0 0.00 0.00 0.00 68 1013.0
20260905121007 62 296 0.0 0.0 0.00 0.00 0.00 67 1013.0
20260905120507 62 296 0.0 0.0 0.00 0.00 0.00 67 1013.1
20260905120006 62 296 0.0 0.0 0.00 0.00 0.00 67 1013.1
20260905115507 62 296 0.0 0.0 0.00 0.00 0.00 67 1013.1
20260905115005 62 296 0.0 0.0 0.00 0.00 0.00 67 1013.1
20260905114503 62 296 0.0 0.0 0.00 0.00 0.00 66 1013.1
20260905114252 62 296 0.0 0.0 0.00 0.00 0.00 66 1013.1
20260905113750 62 296 0.0 0.0 0.00 0.00 0.00 66 1013.1
20260905113005 63 296 0.0 4.0 0.00 0.00 0.00 66 1013.1
20260905112504 63 296 0.0 4.0 0.00 0.00 0.00 66 1013.0
20260905112005 63 313 0.0 0.0 0.00 0.00 0.00 66 1013.1
20260905111506 63 313 0.0 0.0 0.00 0.00 0.00 65 1013.1
20260905111002 63 313 0.0 0.0 0.00 0.00 0.00 65 1013.1
20260905110504 63 313 0.0 0.0 0.00 0.00 0.00 65 1013.0
20260905110006 63 313 0.0 0.0 0.00 0.00 0.00 64 1013.1
20260905105504 63 313 0.0 3.0 0.00 0.00 0.00 64 1013.1
20260905105001 63 313 0.0 3.0 0.00 0.00 0.00 64 1013.1
20260905104505 64 307 0.0 2.0 0.00 0.00 0.00 63 1013.0
20260905104248 64 296 0.0 2.0 0.00 0.00 0.00 63 1013.0
20260905103504 64 296 0.0 2.0 0.00 0.00 0.00 63 1013.0
20260905103004 64 304 0.0 0.0 0.00 0.00 0.00 62 1013.0
20260905102503 64 304 0.0 0.0 0.00 0.00 0.00 62 1013.1
20260905102004 64 304 0.0 0.0 0.00 0.00 0.00 62 1013.2
20260905101505 64 304 0.0 0.0 0.00 0.00 0.00 61 1013.2
20260905101004 64 304 0.0 0.0 0.00 0.00 0.00 61 1013.1
20260905100503 64 304 0.0 0.0 0.00 0.00 0.00 60 1013.3
20260905100004 65 304 0.0 0.0 0.00 0.00 0.00 60 1013.2
20260905095504 65 304 0.0 0.0 0.00 0.00 0.00 60 1013.3
20260905095005 65 304 0.0 0.0 0.00 0.00 0.00 59 1013.3
20260905094503 65 304 0.0 0.0 0.00 0.00 0.00 58 1013.3
20260905094005 65 304 0.0 0.0 0.00 0.00 0.00 58 1013.2
20260905093751 65 304 0.0 0.0 0.00 0.00 0.00 57 1013.3
20260905093004 65 304 0.0 0.0 0.00 0.00 0.00 57 1013.2
20260905092503 66 304 0.0 0.0 0.00 0.00 0.00 56 1013.2
20260905092002 66 304 0.0 0.0 0.00 0.00 0.00 56 1013.3
20260905091506 66 304 0.0 0.0 0.00 0.00 0.00 55 1013.2